Theta_e
326 326 327 327 327 329 330 331 332 333 335 334 334 333 333 331 332 331 332 331 332 336 335 334 335 337 334 333 333 334 333 335 332 333 332 331 333 333 331 332 331 332 333 334 334 334 333 334 332 333 338 336 334 335 334 334 334 335 332 331 332 332 329 327 323 324 329 333 331 329 330 330 327 327 327 327 327 328 324 331 330 331 329 329 325
324 325 326 326 327 328 329 331 332 332 334 335 333 332 331 331 330 332 331 334 332 331 334 335 336 336 335 335 336 335 335 335 332 332 333 331 331 332 333 330 329 331 332 332 335 333 335 333 332 332 336 334 334 332 333 334 332 332 331 330 329 329 332 327 326 325 325 331 328 329 328 328 325 328 327 326 326 325 326 326 329 330 324 327 329
324 324 325 326 326 327 328 329 330 332 333 333 332 333 333 332 331 330 332 332 333 335 335 334 335 335 335 335 334 335 334 334 335 332 331 330 329 330 329 331 329 331 331 332 332 334 333 333 331 332 334 333 332 332 333 332 333 330 328 329 330 333 329 328 327 324 324 325 329 325 324 326 326 325 326 327 326 325 325 323 324 325 323 325 327
323 323 324 324 326 326 326 328 330 331 331 332 332 333 332 332 331 332 332 333 333 334 334 331 333 334 335 334 334 333 333 334 334 333 332 329 328 329 329 330 329 328 331 332 331 332 331 332 332 332 333 331 331 332 331 330 331 328 331 334 334 331 330 332 330 325 325 323 323 321 323 323 324 325 326 326 325 323 324 323 323 323 323 323 325
322 323 323 323 324 324 325 328 329 330 330 331 332 333 334 331 331 330 333 331 330 331 333 334 334 334 335 334 334 334 333 333 330 330 330 331 331 331 329 330 329 329 332 332 331 329 330 331 331 332 332 331 331 332 331 332 330 332 331 331 331 333 332 332 330 325 322 321 321 324 324 323 324 324 323 321 321 322 323 321 321 321 322 323 323
322 322 322 322 323 323 324 326 328 328 328 330 330 331 333 330 330 331 330 329 329 331 331 331 330 335 335 334 334 334 334 333 330 328 329 330 331 332 330 329 330 331 330 328 328 330 332 331 331 331 332 332 332 329 331 331 329 331 330 330 331 330 330 328 326 326 323 322 323 321 325 322 322 323 322 323 319 318 319 320 321 320 319 318 323
321 321 321 321 321 322 324 325 327 327 327 328 329 329 329 331 330 328 331 329 329 329 331 330 332 335 335 334 332 334 333 334 333 331 331 330 329 329 329 328 329 331 332 329 330 329 330 333 333 332 332 332 332 331 334 333 330 330 331 330 332 331 326 329 327 327 324 323 322 323 323 324 324 321 322 324 322 319 318 318 317 319 320 318 319
320 321 321 320 320 321 323 324 325 327 328 328 327 328 328 328 329 330 330 328 328 329 330 331 331 331 329 329 332 331 329 328 330 331 331 331 329 329 328 328 327 330 331 330 331 329 331 332 334 334 333 332 335 337 337 333 333 330 332 332 331 330 327 326 326 325 324 324 323 322 322 324 323 325 324 323 321 320 319 318 316 316 319 320 319
319 320 320 319 320 321 322 322 322 323 324 325 324 325 327 327 328 329 328 328 328 328 330 330 328 328 328 329 328 329 329 328 327 324 329 331 330 329 328 327 327 328 331 332 333 333 333 333 332 330 325 319 311 315 316 322 332 330 330 329 328 329 325 325 325 324 323 323 324 324 322 323 323 323 322 320 319 318 320 321 319 319 318 317 318
319 319 319 319 319 320 320 320 319 320 320 320 320 321 322 323 325 326 326 326 327 329 329 329 328 328 327 327 327 329 326 320 307 299 302 324 327 327 329 327 328 330 330 331 332 333 333 331 323 315 311 308 305 300 299 302 308 328 333 328 328 330 328 327 325 325 324 324 321 320 319 322 323 325 323 323 324 324 322 321 317 318 319 319 318
319 319 318 319 319 319 318 317 317 317 317 317 318 317 318 319 320 321 322 322 324 326 327 326 327 328 327 328 328 328 318 308 296 295 296 299 318 330 327 328 329 330 329 329 331 332 330 330 327 321 318 314 307 296 296 297 298 297 298 303 314 329 326 327 325 327 322 323 323 322 321 321 324 324 324 327 325 324 324 323 320 319 317 316 314
318 318 318 318 317 317 316 315 315 314 315 315 315 315 315 315 315 315 316 317 319 321 321 322 323 324 324 323 321 319 315 300 293 295 296 298 302 321 331 327 327 326 326 327 329 330 331 331 331 331 330 325 322 317 306 298 297 297 298 299 298 298 302 324 327 325 326 321 322 323 322 321 324 325 323 325 328 326 326 324 322 319 320 318 317
317 317 317 317 316 316 314 313 313 313 313 314 314 314 313 312 311 312 311 313 315 315 316 317 318 320 319 317 315 313 310 297 294 296 297 297 296 309 327 326 325 324 326 326 327 329 330 328 329 327 322 324 323 321 320 315 302 301 303 304 305 304 301 300 302 323 328 326 324 323 323 323 323 324 326 325 326 326 324 322 323 321 323 321 318
316 316 315 315 315 315 314 313 312 312 313 313 313 313 312 310 310 310 309 309 309 308 309 311 313 314 314 314 313 310 304 296 293 295 297 297 297 303 327 325 326 326 327 327 328 329 330 331 327 324 326 326 326 324 322 322 324 326 327 327 327 318 308 305 306 308 318 328 327 324 328 328 325 325 326 327 323 323 322 322 321 321 319 319 323
315 314 314 314 314 314 314 313 312 312 313 313 313 311 311 310 309 308 308 307 308 306 305 306 307 308 309 310 308 307 303 294 293 294 296 298 298 308 329 325 324 325 324 324 324 324 328 329 327 326 327 323 311 309 326 327 328 328 328 326 322 317 313 312 313 320 328 330 329 328 325 325 328 328 328 329 327 326 326 327 325 324 323 322 324
314 313 312 312 313 313 313 312 312 312 312 312 311 310 309 308 307 307 307 307 307 307 306 306 304 304 305 306 304 303 302 294 292 293 296 300 307 325 323 323 322 318 319 319 318 318 317 322 328 326 327 322 303 296 301 317 327 326 325 324 321 315 307 297 294 297 308 316 317 316 312 306 301 309 310 318 327 327 326 327 327 324 322 321 318
312 312 311 312 312 313 313 312 312 311 311 311 310 309 309 307 307 307 306 305 304 304 304 305 305 304 303 303 303 303 301 295 292 293 295 298 311 320 320 317 316 316 316 317 314 310 309 312 318 319 317 313 297 294 296 308 325 323 323 325 324 321 317 312 299 295 295 294 294 294 294 295 296 296 297 298 308 319 327 323 318 318 319 314 314
312 311 311 311 312 312 312 312 311 311 311 310 309 309 309 308 307 307 305 304 303 303 303 303 303 303 302 302 302 303 302 297 292 292 294 296 308 316 315 314 312 313 313 313 312 309 305 300 305 308 308 305 294 294 296 313 321 323 322 321 321 320 320 319 316 308 296 296 296 295 295 296 298 299 298 300 303 312 324 317 317 319 314 314 312
311 311 310 311 311 311 311 312 312 311 310 309 309 308 307 306 306 306 305 304 303 303 302 302 301 301 301 301 300 301 301 299 293 292 293 294 306 315 312 310 309 309 309 309 309 309 307 303 297 296 299 296 292 294 294 309 323 323 322 321 318 318 318 319 317 316 315 316 316 317 313 311 317 317 314 301 304 311 320 319 319 317 313 312 313
311 311 310 310 310 310 311 310 310 310 309 308 307 306 306 305 305 305 304 305 304 303 302 302 301 300 301 300 299 299 299 300 295 291 292 294 296 312 313 310 307 307 308 308 307 307 306 305 300 292 292 292 293 293 294 297 316 320 321 319 317 315 318 318 316 321 319 317 317 318 318 318 318 318 318 317 316 314 316 317 317 316 314 312 311
312 311 310 310 310 310 310 309 308 308 308 308 307 306 305 304 305 305 305 305 304 303 303 301 300 300 300 300 300 299 298 299 298 291 292 293 294 301 312 311 311 309 308 304 304 303 303 302 301 293 292 292 293 293 294 295 300 311 309 310 310 310 312 317 316 309 316 316 316 316 316 314 314 314 312 312 312 313 312 313 314 314 312 310 310
311 311 310 309 309 309 308 309 309 308 307 306 304 303 303 303 303 304 304 303 303 303 303 302 300 299 300 300 300 300 300 297 298 294 291 292 292 293 304 306 306 309 306 304 304 303 301 299 297 292 291 292 292 293 294 294 296 306 301 293 294 294 313 315 315 314 313 312 310 310 311 311 310 310 310 310 310 310 311 311 311 311 311 311 310
310 310 309 308 307 306 306 306 306 306 306 305 304 302 302 302 301 301 300 300 300 300 300 300 300 299 299 299 299 300 300 300 295 296 292 291 291 292 292 297 297 307 306 304 303 302 301 299 296 292 291 291 292 292 293 295 298 298 293 294 294 294 303 310 312 311 310 310 309 309 311 310 309 307 308 308 309 310 309 310 310 309 309 309 309
309 308 307 306 306 305 304 304 304 304 304 303 303 303 302 302 301 301 300 299 299 298 298 299 299 298 297 298 299 299 300 301 297 294 295 292 292 291 291 291 293 301 303 302 302 301 299 298 294 291 292 292 292 293 293 294 296 293 294 294 295 299 309 309 307 307 304 306 306 306 306 307 307 307 306 308 307 308 309 309 309 309 309 308 308
305 304 304 304 304 304 305 305 305 305 304 303 301 300 301 301 301 302 301 300 299 298 298 298 297 297 297 297 298 299 300 300 299 297 294 295 293 292 292 291 291 293 298 297 296 296 291 291 292 292 293 294 294 296 296 295 293 294 294 296 303 308 307 307 306 306 304 304 303 304 305 305 305 306 307 308 308 308 307 308 308 307 307 307 307
302 302 302 302 302 302 302 302 303 304 305 305 303 302 301 300 299 299 299 300 300 299 298 299 299 298 298 298 298 298 298 298 297 298 296 298 297 295 294 293 294 293 294 294 291 291 291 292 293 294 295 296 301 301 301 301 295 295 295 298 305 306 306 306 305 305 304 302 301 302 303 305 306 307 308 308 307 305 305 305 305 305 306 304 304
301 302 301 301 301 301 301 300 300 301 302 302 303 303 301 300 299 298 298 298 298 298 299 299 299 298 298 299 299 298 297 295 294 294 296 297 301 301 300 300 297 296 300 301 297 298 295 295 294 292 293 293 295 296 297 298 303 304 304 303 303 303 303 304 304 303 302 301 301 302 303 304 305 305 304 304 303 303 305 304 303 302 304 303 302
302 301 301 301 301 301 301 294 297 299 299 299 299 300 301 300 297 297 297 297 298 298 298 298 300 299 297 298 299 298 297 295 293 292 292 292 295 300 301 300 299 298 298 299 300 301 302 297 300 303 304 305 304 303 302 302 301 300 303 304 303 302 300 298 299 303 303 303 302 303 303 304 303 302 302 303 303 303 304 303 302 301 302 302 300
302 302 302 302 301 301 302 302 301 301 300 298 298 298 299 299 298 297 297 297 296 297 299 298 300 301 298 298 298 298 296 294 292 289 290 288 289 294 295 295 297 298 293 289 301 301 300 301 300 302 301 296 296 299 300 300 298 300 301 302 302 302 301 301 300 301 302 303 301 303 302 302 301 302 300 301 301 302 303 301 302 302 302 302 300
301 301 302 302 302 302 302 301 301 301 302 300 298 296 289 290 296 298 296 290 288 288 290 294 296 300 300 297 296 295 294 293 288 288 288 288 288 288 288 288 288 292 290 289 297 296 295 295 297 297 298 298 296 295 296 297 296 296 297 295 296 299 299 299 300 300 300 298 300 299 298 298 299 301 300 300 298 299 300 298 301 302 300 300 299
300 300 300 300 299 302 301 301 301 301 302 302 302 298 297 295 288 289 291 290 289 289 289 289 289 288 294 298 294 287 289 288 288 288 288 288 288 288 288 288 289 289 289 292 293 295 294 294 295 296 296 298 294 296 296 296 295 295 294 296 298 297 295 297 298 296 295 294 297 296 298 296 297 299 298 298 299 299 299 300 300 301 300 300 300
301 300 300 300 300 301 301 301 301 301 300 301 301 302 301 298 295 290 288 289 289 289 289 288 289 289 288 290 295 299 292 289 288 288 288 288 289 288 289 288 288 290 289 290 293 294 295 295 295 295 296 295 295 295 297 297 298 296 296 294 297 296 297 297 297 299 296 297 297 296 297 298 298 297 297 297 296 298 298 297 298 297 298 299 298
302 302 302 302 301 300 299 300 301 301 300 300 301 300 299 299 298 297 292 289 289 289 289 289 289 289 289 288 288 288 288 288 288 289 289 289 288 288 288 290 289 289 289 293 295 295 296 297 298 298 298 296 298 299 299 300 300 299 299 297 297 298 300 299 295 299 296 296 295 297 297 297 296 295 295 295 295 293 296 294 297 297 297 295 294
300 300 301 302 301 302 301 301 300 300 300 300 299 299 299 300 299 299 298 298 293 290 289 289 289 288 288 288 289 289 288 289 288 289 289 289 289 289 288 293 290 290 292 295 297 296 298 298 298 298 298 297 298 297 296 297 298 298 297 298 299 300 300 301 299 296 296 296 296 295 295 296 295 295 294 295 296 294 296 295 296 294 294 294 295
301 295 291 295 301 300 300 301 301 300 300 300 299 298 299 298 299 298 297 297 298 296 297 296 293 292 295 292 289 289 289 289 289 289 290 290 290 290 289 298 297 297 300 300 298 298 296 296 297 296 297 297 297 296 297 299 298 298 297 295 299 299 298 296 297 297 295 296 296 295 295 294 296 295 295 295 295 295 294 295 295 294 295 294 295
302 302 302 300 300 300 300 300 300 300 299 299 300 298 299 298 298 299 297 297 297 298 297 299 298 291 290 290 289 290 291 290 289 289 289 290 291 291 297 296 295 296 295 297 297 297 297 297 297 297 297 296 297 297 297 297 297 297 298 297 294 296 295 296 295 294 294 295 294 294 294 295 294 295 295 295 295 295 295 293 294 294 294 294 293
300 301 301 301 301 301 301 300 300 300 295 297 298 299 298 298 297 298 298 297 297 297 298 297 299 300 296 296 292 289 288 291 291 290 289 290 292 297 298 297 297 297 295 296 296 296 296 296 297 297 297 297 297 297 297 297 297 297 295 297 297 296 294 295 296 294 296 295 295 295 294 294 294 294 295 294 294 293 294 293 293 292 292 291 290
299 299 299 300 302 301 300 299 298 294 297 298 298 298 297 298 298 297 296 296 296 295 297 297 294 295 295 296 300 298 297 291 289 291 292 293 294 296 296 295 296 296 296 296 296 296 296 296 297 297 297 297 297 297 296 297 296 296 293 296 293 294 292 295 293 294 294 295 295 295 295 294 295 295 294 294 294 293 293 292 292 292 291 291 291
298 292 289 290 293 299 300 298 297 298 299 298 298 297 295 297 296 297 297 297 296 296 296 297 296 294 295 296 297 298 297 296 294 294 294 295 296 296 296 297 297 296 296 296 296 296 296 296 296 297 297 297 296 297 296 295 296 295 294 295 295 294 294 295 294 294 295 295 295 295 295 295 295 295 294 294 293 293 293 292 292 292 291 290 290
299 299 296 291 298 296 297 296 298 298 296 297 298 297 298 296 297 296 297 295 294 295 296 296 295 295 295 296 295 296 297 293 294 295 294 294 294 296 297 295 296 296 296 296 296 296 296 296 296 296 296 296 296 296 296 294 293 294 295 295 295 294 294 295 295 295 295 295 295 295 295 294 295 294 294 294 293 293 292 291 291 291 291 290 289
300 299 294 294 294 298 297 299 298 298 298 297 297 298 297 296 296 294 296 295 294 295 296 296 297 297 295 293 288 289 297 296 296 295 294 294 294 295 295 295 294 296 296 295 294 296 296 296 295 294 294 295 295 294 294 295 294 293 294 294 294 293 294 293 293 294 294 294 294 294 294 294 294 294 293 293 292 292 292 291 291 291 290 290 290
300 299 299 298 297 298 297 296 297 298 297 298 297 297 296 296 296 296 294 293 294 294 295 296 297 297 292 283 287 288 295 297 296 296 296 295 295 295 294 296 296 296 295 295 296 293 293 294 295 295 292 294 294 294 294 294 294 294 294 293 293 293 293 293 293 293 293 294 293 293 293 292 292 293 292 292 293 293 292 292 292 291 291 290 290
300 299 299 297 298 298 297 297 297 298 297 297 297 294 295 297 297 296 296 295 294 294 295 295 297 297 295 291 292 288 296 296 292 295 296 295 295 294 295 295 295 295 296 297 296 295 294 294 293 294 294 294 294 293 294 294 294 294 294 293 293 293 293 293 293 292 293 293 292 292 291 292 293 293 293 292 293 293 292 291 291 291 290 291 290
298 298 297 298 298 298 298 298 297 297 297 294 295 295 298 297 297 297 297 297 294 295 294 296 296 295 296 297 294 296 297 296 296 295 295 294 294 294 293 293 295 295 295 294 295 294 294 293 292 292 293 295 295 296 294 294 294 293 293 293 293 292 292 292 292 292 292 292 293 292 292 292 292 293 292 292 292 291 291 291 291 291 292 291 289
301 299 298 298 298 298 299 298 297 298 295 295 297 297 295 298 297 296 296 296 295 297 296 295 295 295 295 297 297 296 297 296 294 293 294 294 294 295 295 295 294 294 294 294 292 294 293 291 292 291 290 292 294 292 294 293 295 293 294 293 292 293 293 292 292 292 293 291 292 293 293 293 292 293 292 292 291 291 291 289 291 289 290 290 290
300 299 298 298 298 298 297 298 295 298 298 297 297 297 297 297 298 297 297 296 295 295 297 296 295 295 295 296 296 295 296 296 296 295 294 294 295 295 295 295 293 294 294 293 292 293 291 291 291 290 290 290 290 291 292 293 294 294 295 295 293 293 294 294 293 293 292 291 292 293 293 292 292 292 290 292 292 292 291 291 290 290 291 289 288
300 300 298 298 297 297 297 299 297 297 298 297 298 296 297 297 298 295 294 296 296 295 297 296 296 296 296 296 296 296 297 296 296 295 294 296 295 295 295 295 295 294 295 293 292 294 292 292 291 290 289 289 288 288 288 289 290 292 293 294 293 291 290 290 292 292 293 292 292 292 292 292 292 292 291 291 291 291 290 290 290 289 289 290 289
300 299 299 298 299 298 298 298 298 294 297 296 296 296 296 295 297 296 296 296 296 296 296 297 297 297 296 297 296 296 296 296 297 297 296 294 295 295 295 295 293 294 294 294 294 293 292 291 291 290 289 288 287 286 287 287 287 288 288 288 285 285 283 284 289 291 290 290 291 291 291 291 291 291 291 290 290 291 289 290 289 290 289 288 290
300 299 299 297 297 298 298 297 297 297 297 298 296 296 296 296 297 297 296 297 297 297 297 296 296 297 297 297 297 297 297 298 297 297 297 296 297 296 295 295 293 294 294 293 294 293 292 292 291 291 290 289 288 286 286 286 286 287 286 286 282 279 281 279 284 286 285 287 290 291 290 289 289 289 289 289 289 290 290 290 290 290 290 290 289
299 298 298 298 299 298 298 299 298 299 297 297 297 297 296 297 297 296 297 297 297 297 297 297 296 297 297 297 296 297 298 297 297 297 297 295 297 296 296 296 295 294 295 294 295 294 293 291 290 290 289 289 288 286 286 286 286 286 286 283 279 279 279 278 281 280 284 287 288 290 291 290 289 290 290 290 289 288 288 289 289 289 289 289 289
297 297 298 298 298 298 298 299 298 298 298 298 297 297 296 296 296 297 296 296 297 297 296 297 297 297 297 297 296 297 297 298 297 298 297 298 298 297 294 295 295 294 294 294 295 295 294 292 292 291 290 289 288 287 287 286 287 286 282 278 277 278 277 279 283 282 279 281 286 288 290 290 289 289 289 290 290 289 288 288 289 289 289 290 289
Wind_Speed
9 9 9 9 10 11 12 12 13 12 12 12 11 11 10 11 8 8 7 10 11 9 8 7 6 7 7 7 8 8 9 6 6 4 4 5 4 6 7 7 8 7 7 9 7 9 9 9 9 11 8 7 7 7 7 9 8 5 6 5 4 7 6 5 5 5 6 4 5 6 10 10 8 8 9 8 8 6 7 11 10 9 9 8 7
10 10 9 9 10 10 11 11 12 11 12 11 11 9 8 5 6 5 8 8 4 10 7 4 5 6 7 9 6 7 7 7 7 6 4 2 2 3 2 5 8 7 7 9 8 7 8 8 10 11 8 7 6 7 8 8 8 8 7 7 6 3 7 5 6 6 6 5 8 7 9 9 8 8 9 9 9 7 8 7 8 9 7 8 8
9 9 10 9 10 10 10 10 11 12 11 10 10 11 10 8 7 9 6 9 9 4 6 4 5 5 6 5 7 6 7 7 6 5 4 3 3 3 5 3 3 4 7 8 10 9 9 9 10 9 7 8 7 8 9 9 8 7 8 6 4 4 7 7 7 7 8 6 5 7 8 7 7 9 10 8 8 8 9 8 8 6 6 8 8
9 10 10 10 10 10 10 10 11 11 10 9 10 9 8 8 8 7 6 10 11 4 5 8 7 7 6 5 6 7 7 6 6 5 5 4 5 4 5 4 3 7 10 9 7 7 9 9 9 9 8 9 10 10 10 10 9 7 2 4 6 7 4 4 5 7 7 7 9 8 7 7 7 9 9 8 8 7 7 7 7 6 8 7 9
10 10 10 10 10 10 10 10 11 11 11 9 10 10 9 8 7 8 6 8 10 10 6 3 5 5 4 4 4 5 5 7 6 5 6 6 6 5 7 5 9 12 12 7 5 9 10 9 9 9 9 9 9 10 6 7 7 5 6 4 2 3 4 3 2 7 8 9 7 6 8 7 6 7 8 8 8 7 8 7 7 7 7 7 8
10 10 10 10 10 11 10 10 11 11 10 10 10 10 8 9 7 6 8 8 8 6 9 3 2 2 3 4 3 5 5 5 5 5 4 3 3 4 5 8 11 12 5 2 6 8 7 10 10 9 9 8 4 7 7 8 5 4 6 5 4 4 3 6 6 7 8 7 6 7 7 7 7 7 8 7 7 7 7 7 6 7 7 5 7
10 9 10 10 10 11 11 10 10 10 10 9 8 6 8 7 7 8 5 5 6 8 4 8 5 3 3 5 4 3 5 3 2 3 4 7 6 7 9 13 13 9 8 7 7 6 7 9 8 9 8 5 7 7 5 3 6 6 7 7 5 4 3 3 6 4 4 6 6 6 6 6 6 6 7 7 7 7 7 6 7 7 7 6 8
10 10 10 10 11 11 10 11 11 11 10 10 10 10 9 7 7 5 6 8 7 6 6 3 4 5 5 3 4 6 6 4 2 2 2 3 6 9 11 8 7 8 9 9 6 9 10 5 5 6 7 5 4 4 4 3 4 4 4 5 4 5 3 2 7 9 8 6 6 6 5 6 6 4 4 6 6 5 6 7 7 7 7 7 7
10 10 10 10 11 11 10 10 11 12 12 12 13 13 12 12 10 8 8 6 6 8 8 8 8 8 7 8 8 7 5 3 6 6 2 2 6 8 8 6 5 5 5 8 10 8 8 5 3 8 8 9 10 9 9 5 5 5 3 3 2 6 6 8 7 6 7 8 3 3 1 5 4 5 7 6 7 6 5 5 5 5 7 7 7
11 11 12 12 11 11 11 11 12 12 12 12 12 12 12 11 11 10 10 9 9 8 7 7 6 5 4 6 4 6 6 6 8 10 8 3 7 10 6 5 6 5 4 3 4 5 8 6 6 10 11 11 10 10 10 10 10 5 6 7 7 5 7 8 6 6 4 5 6 6 2 3 4 3 4 7 7 6 7 7 7 7 6 5 6
11 12 12 12 12 12 11 12 12 13 12 12 11 12 13 11 11 11 10 10 10 9 9 9 8 7 7 6 6 6 6 6 14 12 10 6 5 5 4 5 3 4 5 7 3 5 4 5 5 8 9 10 9 10 9 11 12 13 13 11 8 3 7 6 5 7 6 4 6 5 5 6 4 4 5 2 6 6 6 6 7 6 8 8 6
12 12 12 12 12 12 12 12 12 13 12 12 12 12 12 12 12 12 11 11 10 9 10 9 9 8 8 9 10 9 9 15 17 13 11 12 9 7 3 2 3 4 5 4 4 3 4 4 5 4 4 6 7 7 9 10 12 12 12 13 11 10 7 5 2 1 6 6 5 5 5 3 3 2 1 3 4 3 4 5 5 7 6 4 3
12 12 12 13 12 12 12 12 12 12 12 12 12 12 13 12 13 13 13 12 10 11 9 9 9 8 8 10 10 10 10 16 18 13 12 13 13 9 4 4 4 6 4 4 3 3 4 4 5 5 6 8 7 8 8 8 9 14 14 13 13 14 14 14 12 8 3 6 4 2 2 3 5 2 3 3 8 8 5 3 3 5 5 5 2
12 12 12 13 12 12 12 12 12 12 11 12 12 13 13 13 12 11 11 13 13 11 11 10 9 9 9 9 8 8 9 17 20 17 13 13 12 10 5 6 4 2 0 1 1 2 4 4 6 6 7 7 7 7 9 8 8 7 7 7 8 11 13 14 15 15 11 7 7 4 4 7 2 3 3 3 3 7 4 2 4 5 6 3 3
12 12 12 13 13 12 12 12 12 12 12 12 13 13 13 12 12 11 10 12 13 13 11 10 10 10 9 9 7 7 10 22 21 20 16 15 15 11 7 14 13 11 14 13 13 12 5 3 6 7 8 9 7 10 4 5 6 6 7 8 9 9 10 10 10 8 8 7 8 6 7 7 7 8 8 6 6 3 2 1 6 6 6 3 4
12 12 12 13 13 13 12 12 11 11 12 12 13 13 13 12 12 10 9 9 10 10 11 11 11 11 9 8 9 9 14 23 22 21 18 16 16 11 12 7 8 10 10 12 11 9 9 9 5 7 6 9 12 14 11 7 6 6 7 8 9 9 9 6 8 10 10 9 8 8 7 7 8 8 7 7 5 3 3 2 3 4 6 6 5
13 13 12 13 13 13 13 12 12 12 12 13 13 13 12 12 11 10 11 11 10 10 10 11 11 12 14 13 11 8 12 18 22 21 20 17 11 9 8 8 9 10 10 10 10 11 11 11 9 10 10 9 12 13 15 13 4 4 6 6 7 8 8 7 10 13 14 15 15 14 12 13 14 13 13 13 10 7 3 1 6 7 4 2 3
12 12 12 12 13 13 13 13 13 13 12 13 13 12 11 10 11 10 11 10 10 9 8 10 11 11 12 13 13 12 11 17 23 21 21 21 12 9 8 9 9 8 8 9 8 10 14 22 14 9 9 9 12 16 18 12 8 3 4 6 7 7 6 6 5 6 11 13 13 11 10 10 12 12 13 12 13 9 5 3 2 4 5 4 4
12 12 12 11 11 12 13 13 14 14 14 12 12 12 11 10 10 11 11 11 11 9 9 10 11 11 13 13 17 13 10 14 20 21 21 21 13 8 8 7 7 7 7 7 7 8 9 11 17 13 9 10 17 17 18 12 5 4 3 3 6 6 5 4 4 4 3 4 5 4 5 4 6 7 7 10 11 9 7 6 3 3 4 5 6
12 12 11 11 11 12 12 13 13 13 13 12 11 10 9 9 9 9 10 10 9 10 10 10 11 12 12 12 12 13 11 12 17 20 20 19 18 9 6 6 7 7 6 6 6 8 8 7 10 16 16 18 17 17 17 17 10 9 8 4 5 6 2 5 7 4 6 5 5 5 6 5 6 6 6 7 7 8 7 6 5 3 1 4 6
12 12 11 12 13 13 13 13 14 13 12 11 11 11 10 9 8 8 9 8 8 9 11 10 10 11 11 12 11 12 14 13 15 20 19 19 18 13 8 9 6 6 5 7 7 8 8 8 7 14 16 16 17 18 18 18 14 11 11 9 8 8 6 5 5 6 6 5 5 4 4 4 4 4 5 6 6 6 7 8 7 7 7 8 3
11 12 12 13 12 13 13 12 11 11 12 12 12 12 11 11 10 10 8 9 11 12 11 10 11 11 10 11 13 13 14 18 14 17 19 18 18 18 10 9 8 6 7 6 7 7 7 6 6 10 14 15 16 16 17 16 16 10 10 14 17 17 9 7 4 4 4 2 3 3 3 3 4 4 4 4 5 6 7 7 8 9 9 9 9
11 11 12 12 12 12 12 13 11 10 10 11 12 12 11 11 11 11 10 10 10 11 11 10 9 10 10 9 9 11 12 10 16 15 18 18 18 18 17 13 13 10 9 9 8 7 6 7 7 10 12 14 15 16 15 14 11 10 15 15 16 15 9 5 4 3 3 4 4 3 2 2 2 3 4 4 4 5 6 6 7 8 9 9 11
9 10 10 10 11 11 11 12 12 11 12 12 12 12 11 10 10 9 9 9 9 10 8 8 8 8 9 7 8 8 9 9 11 16 14 17 17 18 18 18 16 10 8 8 7 7 7 6 6 9 12 13 14 14 14 12 12 17 15 14 12 9 6 5 5 5 4 3 4 4 4 4 3 4 5 5 5 6 5 6 7 8 8 8 9
9 10 10 10 10 10 10 10 9 10 10 11 11 11 12 11 10 10 9 8 8 8 8 8 8 7 7 7 6 7 8 8 8 12 15 12 14 15 16 17 18 16 10 7 7 6 6 8 10 12 12 12 13 11 11 14 16 14 15 12 9 5 5 6 6 5 4 3 3 3 4 6 6 6 5 4 4 4 4 4 5 6 7 8 8
10 10 10 10 11 10 10 11 12 11 10 9 10 10 11 11 10 10 10 9 9 9 9 8 8 8 8 8 8 7 8 8 8 9 10 11 10 13 13 13 12 11 9 7 8 11 12 11 13 12 11 8 7 7 7 8 12 14 14 12 7 7 7 6 5 4 4 3 3 3 3 3 4 4 2 0 1 3 2 3 4 5 5 5 6
10 9 9 9 10 10 11 9 10 11 12 10 10 10 11 11 11 11 11 10 10 9 9 9 9 9 9 8 8 8 8 8 8 8 8 7 7 6 7 8 10 8 6 6 8 7 8 8 7 7 6 7 7 7 8 8 7 7 6 7 6 6 6 6 5 3 3 3 3 3 3 3 3 2 3 3 3 3 3 1 1 3 2 3 5
9 9 9 8 8 8 8 9 10 10 11 11 11 10 10 11 12 12 12 11 11 10 9 9 9 9 9 8 8 8 8 8 9 9 9 8 7 6 6 6 6 5 6 5 5 5 4 3 4 3 3 2 3 5 5 6 6 5 4 4 5 4 4 5 6 5 5 4 3 2 2 2 3 3 2 2 3 3 0 1 3 2 2 2 1
8 8 8 7 7 7 7 8 7 8 9 11 12 11 10 10 11 11 10 9 9 9 9 9 9 8 9 9 8 8 8 8 8 7 7 8 6 6 6 6 5 5 4 4 3 4 4 5 5 5 5 3 4 6 5 5 5 5 6 5 5 5 5 4 4 4 3 2 2 2 2 3 3 3 3 3 3 3 2 2 2 2 3 3 3
8 8 7 7 7 7 7 7 7 7 7 8 10 9 9 11 9 9 8 6 9 11 10 8 8 8 7 8 8 7 7 5 7 8 8 9 9 7 5 5 5 5 7 10 4 3 3 3 3 4 4 4 4 4 4 4 3 3 5 4 4 5 5 4 4 4 3 2 2 1 1 0 2 2 2 3 3 3 3 4 3 1 3 2 2
7 7 8 8 7 7 7 7 7 7 7 6 7 8 8 8 10 10 9 9 11 12 12 12 15 16 11 6 7 9 6 4 7 7 8 7 7 7 7 6 6 7 7 4 3 3 3 3 2 2 3 4 3 2 2 2 2 2 3 3 4 4 3 3 3 1 0 1 1 1 1 1 0 2 3 1 3 4 2 1 2 3 0 1 3
7 7 7 7 7 7 7 7 7 8 7 7 8 6 5 8 6 4 4 5 6 10 12 13 13 12 12 11 8 5 8 9 10 9 10 10 9 9 8 7 6 5 7 4 2 3 3 2 2 3 3 2 1 1 1 1 0 3 2 1 1 1 1 1 1 2 2 1 1 2 1 0 1 1 1 1 1 2 2 1 2 5 3 3 3
8 7 6 6 6 7 7 7 7 7 8 8 7 7 8 8 5 6 3 2 2 7 11 11 11 11 10 9 7 5 3 7 9 9 9 9 8 8 10 8 5 6 6 1 2 2 1 1 2 2 2 1 2 1 0 1 2 1 1 0 0 1 3 1 3 5 4 4 1 0 1 1 1 1 1 2 2 3 2 2 2 2 4 4 4
9 9 8 6 7 7 7 7 7 7 7 8 7 7 7 6 7 8 4 6 6 3 4 7 10 11 9 9 8 7 7 9 9 10 11 10 9 8 6 7 10 10 6 2 2 2 2 2 2 3 2 1 0 2 0 1 2 2 2 3 2 2 1 1 1 2 0 1 1 1 1 1 1 2 2 1 2 1 1 1 4 4 2 2 3
8 8 9 10 8 7 8 7 7 7 7 7 8 8 7 7 7 7 8 9 9 7 6 6 4 7 8 7 7 5 6 7 9 9 11 11 10 9 8 6 2 2 3 8 7 7 8 8 7 7 6 5 4 3 3 3 2 1 0 0 1 0 1 0 1 2 2 2 2 2 1 2 1 2 2 3 3 3 2 1 1 1 3 2 2
6 6 7 8 8 8 8 8 7 7 7 7 7 8 7 8 7 7 8 9 8 7 8 8 6 4 9 9 9 5 4 5 7 9 10 12 14 14 3 6 5 5 6 7 7 6 6 6 7 6 6 6 6 6 5 4 4 3 2 1 1 0 0 0 0 0 0 0 1 2 1 2 0 3 4 3 1 1 1 2 2 4 4 2 1
7 7 6 6 6 6 6 6 7 6 6 7 8 7 7 7 7 7 8 8 7 9 9 9 7 3 5 5 7 5 2 3 4 7 9 11 12 9 9 7 5 6 6 6 6 6 6 6 5 4 4 4 3 3 3 3 4 4 5 4 2 5 4 3 2 1 1 2 2 1 0 2 1 2 3 3 2 3 2 2 3 3 3 4 6
9 7 8 9 7 7 7 7 6 4 6 7 7 7 7 7 7 7 7 7 8 6 8 10 9 9 10 10 9 7 3 7 6 5 4 4 5 6 6 5 8 9 8 7 6 6 6 5 5 5 5 5 5 4 3 3 3 1 2 3 2 2 4 0 1 1 0 1 2 1 1 1 0 1 1 3 3 3 3 3 3 3 2 1 1
9 7 7 9 9 6 7 6 7 7 7 6 6 7 7 7 8 8 7 7 7 7 8 8 9 9 10 9 8 10 9 8 7 7 6 6 6 5 7 7 7 7 8 7 6 6 6 6 5 5 5 5 4 4 4 3 4 2 1 1 1 2 2 2 2 2 2 2 2 3 3 3 2 2 2 2 2 2 2 2 1 2 2 3 3
6 5 3 8 3 7 6 7 6 7 7 7 7 7 6 7 7 7 7 7 6 5 7 7 8 8 8 8 8 8 9 6 6 6 6 6 6 7 8 6 8 8 7 7 7 7 6 5 5 5 5 5 5 5 4 2 1 1 1 0 0 0 0 0 0 0 0 0 0 1 1 1 2 2 3 2 2 2 2 2 3 3 3 3 2
6 6 7 8 5 5 6 6 7 7 7 7 6 6 7 6 6 7 7 5 5 6 8 7 6 6 6 4 8 7 8 7 8 8 8 5 5 6 6 7 5 7 7 7 6 7 7 6 5 3 3 3 3 2 3 2 1 1 1 1 1 1 1 2 2 2 1 1 0 1 1 0 1 2 2 3 3 2 2 2 2 2 2 2 2
4 5 5 5 5 5 5 6 7 7 7 7 7 7 7 6 6 6 7 4 7 6 5 7 7 6 3 2 7 10 7 7 7 7 7 7 7 7 5 6 7 7 4 5 6 4 3 6 4 3 3 3 3 2 1 1 1 1 0 0 0 0 1 0 1 1 0 0 1 3 5 3 4 4 2 1 2 2 2 2 2 2 2 2 2
5 4 4 4 5 5 4 6 6 6 6 6 6 6 6 6 6 6 6 6 6 7 4 5 7 6 3 5 5 7 5 7 6 7 7 7 7 5 6 4 5 7 7 6 6 4 4 4 4 3 3 2 3 4 3 3 3 2 1 1 2 2 0 1 2 2 0 1 1 1 2 3 1 0 1 1 0 1 2 1 1 2 1 1 1
6 5 4 3 4 4 4 5 6 5 5 2 2 5 5 5 6 7 7 7 6 5 4 5 6 6 6 1 5 4 7 7 7 6 7 6 5 4 4 4 5 5 5 3 3 3 3 3 3 3 3 2 1 1 2 2 3 3 1 2 1 1 2 2 3 4 6 4 1 2 1 1 3 1 1 0 0 2 1 0 0 0 0 2 1
2 4 4 4 4 4 2 4 4 4 3 4 3 4 4 5 5 6 6 7 7 7 6 6 5 4 6 6 6 6 6 7 5 5 4 3 3 4 3 3 4 4 3 4 3 5 3 3 2 1 2 3 3 3 1 1 1 3 3 2 3 1 0 1 2 2 3 3 6 1 1 1 2 1 2 2 1 1 1 2 1 2 0 1 1
2 3 2 1 5 3 5 7 5 4 3 4 3 4 4 5 5 5 4 5 6 5 6 6 4 4 4 5 5 6 5 6 6 5 5 3 3 3 3 3 3 4 3 3 3 2 2 3 3 3 3 3 3 3 3 1 1 0 2 2 0 1 1 0 1 2 2 3 4 4 1 0 1 2 3 3 1 1 3 2 1 1 0 1 0
2 2 2 3 5 3 3 1 4 4 3 3 4 3 4 5 4 4 4 3 4 5 5 5 5 6 4 6 3 5 5 5 4 3 4 4 4 3 3 3 3 3 3 2 2 1 1 0 1 1 1 2 2 2 2 3 1 0 0 2 3 4 5 5 4 2 2 2 3 3 3 3 1 0 2 1 2 1 0 1 0 0 1 2 1
2 3 1 2 2 2 2 2 2 4 2 4 3 4 4 4 4 4 5 5 4 5 5 5 5 6 6 6 6 5 5 5 4 4 4 3 3 3 2 1 2 3 4 2 1 1 2 1 0 0 1 0 1 1 2 2 2 2 2 4 5 4 5 6 4 4 4 5 3 3 3 2 2 3 3 1 1 3 1 2 2 2 2 2 2
4 5 3 4 4 2 3 3 3 3 2 2 4 4 4 4 4 5 5 5 5 6 6 6 6 6 6 6 6 6 6 5 4 4 2 2 4 4 3 2 1 1 2 3 2 1 1 0 0 1 1 1 0 0 1 1 1 1 2 3 4 5 6 6 5 4 8 5 4 4 3 2 2 2 1 2 2 1 2 2 2 1 0 0 0
0 1 0 1 1 2 2 2 3 3 3 3 4 4 4 5 4 5 5 5 6 6 6 6 6 6 6 6 7 6 6 5 5 5 4 3 3 3 3 3 2 1 3 4 3 0 0 1 1 1 1 1 0 1 1 0 0 1 3 3 3 4 4 5 4 4 6 4 6 5 4 2 2 1 2 1 1 1 2 2 1 2 2 1 1
4 2 3 1 2 2 3 4 3 3 4 4 4 4 4 5 5 5 5 5 6 6 6 6 6 6 6 5 6 6 6 6 6 5 5 5 4 3 3 3 3 2 3 2 3 3 1 1 2 2 1 1 1 0 1 1 1 3 4 5 3 2 2 3 2 5 6 5 5 5 4 2 2 2 2 2 1 2 2 2 2 2 3 2 2
Wind_Direction
341 338 333 327 321 319 318 314 311 312 317 325 325 329 335 317 309 284 256 246 237 231 239 233 207 212 160 198 182 168 176 171 171 185 173 195 212 212 221 215 218 205 202 192 196 187 203 189 186 209 195 200 203 214 219 239 233 222 213 220 187 151 154 156 159 168 142 174 191 185 153 168 155 165 145 128 154 191 225 126 157 179 155 143 143
344 339 337 327 322 319 316 316 317 318 322 326 335 338 326 327 310 303 303 293 283 255 237 223 197 208 175 172 164 163 162 158 156 167 123 167 255 285 273 194 229 210 210 203 200 201 201 191 204 204 194 199 201 218 226 223 231 212 210 210 194 164 120 163 162 145 144 165 178 189 149 170 157 167 135 148 162 171 151 149 165 200 159 145 143
345 339 336 334 328 322 324 326 327 324 326 326 338 339 329 323 307 300 291 275 253 256 255 152 185 190 157 160 166 164 155 151 139 134 144 172 237 227 247 210 256 225 212 209 206 205 202 202 209 194 187 201 203 217 227 218 217 226 207 194 162 107 165 172 158 148 173 172 182 165 175 164 162 147 147 157 164 173 158 158 176 193 142 150 150
348 344 340 338 336 333 334 330 329 334 332 335 341 336 327 325 319 307 313 306 282 208 241 171 198 179 158 163 159 147 153 138 121 128 136 153 225 206 214 220 233 249 228 207 198 200 201 205 207 198 194 197 209 208 214 208 206 206 110 94 157 127 183 142 178 156 167 156 177 172 161 162 164 152 150 157 162 181 161 167 176 165 146 166 147
353 350 351 346 343 343 340 334 338 344 342 343 341 336 334 335 325 320 331 322 323 330 316 240 133 163 148 157 157 158 132 125 119 131 149 182 209 192 205 202 213 221 222 216 214 207 203 207 205 204 195 203 190 211 194 218 210 127 130 126 142 101 152 142 227 193 167 171 164 151 149 163 170 152 155 155 167 181 165 161 179 156 162 178 166
4 359 359 352 354 354 346 341 346 349 348 342 343 332 340 344 335 342 355 331 311 284 288 78 236 100 122 112 153 172 127 128 149 145 156 131 253 199 207 227 221 215 151 257 198 246 213 207 212 198 195 199 206 221 187 208 181 109 138 125 177 162 116 125 221 243 166 160 162 153 168 163 162 162 164 163 162 177 163 159 177 165 155 190 127
8 10 7 6 1 359 355 349 352 359 354 345 339 333 343 355 3 2 352 334 348 323 340 327 352 39 82 99 107 115 111 123 140 166 164 157 214 233 221 212 213 209 160 199 199 222 226 220 212 184 202 174 207 202 168 173 109 181 121 153 188 146 170 105 157 243 153 160 167 170 170 168 168 169 177 165 164 182 162 164 173 174 156 183 158
13 13 14 11 9 7 4 358 356 2 0 358 355 356 355 4 4 12 5 20 350 354 344 2 17 33 42 55 44 51 82 61 24 200 241 171 201 233 233 224 217 198 168 193 212 226 214 226 191 206 169 188 164 148 134 134 102 130 170 142 159 145 148 261 209 184 158 181 174 173 178 164 168 181 198 173 179 191 178 174 178 173 169 176 196
18 21 19 14 9 10 12 11 4 3 5 10 7 5 9 9 17 26 23 13 13 20 26 33 37 43 30 44 50 52 31 52 39 351 314 352 303 261 243 222 209 187 204 201 189 190 142 119 39 72 64 75 56 57 58 62 140 164 133 75 229 187 171 197 205 193 179 168 133 12 136 179 199 182 183 178 192 196 187 193 187 182 173 180 198
21 19 19 16 14 12 15 16 13 11 11 13 11 10 11 10 8 16 18 19 18 28 39 60 62 64 53 61 57 60 51 36 8 344 317 326 273 250 215 198 192 193 175 236 185 195 94 97 88 76 71 71 67 70 74 63 55 99 141 153 212 234 194 210 190 169 185 120 120 123 295 245 144 240 213 189 195 199 177 193 193 193 198 188 200
23 21 19 17 15 17 17 18 16 16 14 15 15 17 16 12 12 15 19 24 20 20 32 35 34 30 44 42 46 50 52 21 352 342 332 318 335 260 177 209 190 190 185 188 218 117 136 110 115 110 103 87 70 72 75 75 81 80 73 91 119 121 274 194 205 178 162 138 137 150 182 239 199 224 221 240 214 206 198 188 207 191 208 201 187
24 24 22 20 19 20 20 19 20 20 18 18 19 22 24 22 22 21 22 28 32 23 28 27 28 28 31 32 33 27 37 7 349 345 341 353 2 347 244 203 209 204 218 193 177 141 154 131 126 114 96 97 111 99 84 87 95 94 96 90 75 73 62 50 359 322 149 150 159 170 212 215 169 151 259 341 321 283 218 222 212 201 208 210 216
28 26 22 22 23 23 23 23 23 23 21 24 24 27 29 28 25 26 23 16 18 28 25 33 34 30 35 34 35 25 26 358 343 342 356 358 358 348 309 253 221 216 213 191 176 161 159 155 118 99 112 119 107 103 110 105 100 110 108 96 77 57 37 27 23 19 68 114 143 131 203 145 139 193 195 195 175 207 203 241 344 335 319 87 111
32 27 23 24 25 25 28 27 28 26 27 29 31 31 32 31 28 27 27 27 31 27 15 20 29 33 39 42 40 30 25 356 352 347 359 1 350 344 305 299 284 306 91 57 110 131 147 148 137 129 135 120 91 109 129 128 137 134 111 87 67 43 31 24 11 11 15 41 58 85 45 76 134 139 71 48 46 42 28 347 76 43 51 87 69
33 29 26 25 25 25 27 30 27 28 30 33 35 35 32 29 28 26 27 30 34 33 26 23 22 30 34 34 34 30 19 8 356 350 356 4 358 328 41 32 16 18 25 24 26 12 346 143 158 132 94 59 31 2 14 113 98 96 98 77 65 51 39 21 13 5 29 60 96 90 50 26 37 37 25 29 84 162 206 103 108 128 125 97 87
36 31 29 27 27 26 29 31 32 32 33 34 37 36 35 32 29 28 30 29 31 30 31 32 27 28 27 28 35 27 22 9 358 353 354 11 15 29 53 53 37 33 36 38 34 20 9 357 36 79 81 55 13 6 8 353 126 117 105 102 95 80 65 58 35 41 46 52 56 65 62 62 58 56 39 18 36 87 156 159 142 161 188 174 129
38 35 32 30 28 30 32 35 37 37 36 38 39 38 36 33 31 29 34 31 30 26 29 33 31 31 30 30 34 28 28 9 3 358 359 5 42 57 52 49 47 44 38 36 38 29 18 18 38 44 34 28 3 13 10 3 123 138 102 98 98 90 82 75 55 56 68 70 74 78 75 63 55 48 41 37 28 356 332 353 35 352 16 62 109
41 38 36 33 33 34 35 40 42 41 40 41 41 41 41 40 36 33 35 33 33 28 29 35 35 34 33 31 24 34 29 16 7 6 6 8 29 63 73 67 57 43 49 40 38 37 32 26 27 41 38 17 4 26 19 21 20 358 124 109 86 78 77 74 78 69 77 83 82 82 84 83 77 63 50 40 30 11 36 83 157 134 127 123 130
43 43 41 38 34 32 36 41 46 48 48 47 44 46 44 41 42 43 45 45 42 38 33 41 39 37 35 34 27 27 27 22 11 15 13 11 14 65 68 86 80 69 60 56 43 40 31 29 26 34 42 29 27 27 27 22 16 319 53 67 68 70 62 69 88 92 105 97 80 91 88 88 68 62 62 58 39 39 48 48 53 47 68 85 114
50 51 51 47 45 46 46 43 42 44 48 47 45 42 41 42 38 44 44 45 47 45 41 43 44 44 38 37 35 30 26 26 20 17 20 18 13 29 50 65 70 58 41 40 39 54 39 22 24 23 36 40 36 34 32 32 30 23 15 51 87 77 93 51 18 31 72 56 63 64 68 74 76 66 61 59 59 56 41 34 37 15 118 159 149
58 60 61 57 53 51 51 50 49 46 43 44 47 44 39 35 27 36 49 50 46 48 50 46 41 37 34 35 36 35 33 27 24 22 23 24 22 31 52 49 56 65 56 54 46 43 34 22 21 18 34 42 45 43 42 41 41 45 37 34 30 33 21 80 46 33 66 65 72 72 69 71 77 78 69 54 53 56 55 43 35 34 33 16 336
63 65 63 60 57 53 50 49 52 51 47 47 49 47 41 37 31 25 30 40 41 41 40 46 46 41 36 36 36 35 32 32 26 26 27 26 30 33 44 33 30 62 57 55 48 48 45 27 21 15 37 47 50 51 50 50 45 54 33 28 24 22 17 50 45 51 64 54 62 62 53 46 41 57 70 74 66 53 52 55 50 46 36 36 16
71 67 65 62 61 58 53 50 49 47 47 46 47 46 38 35 34 32 33 33 35 38 40 39 42 45 41 32 28 28 27 29 25 28 27 28 30 35 36 35 30 49 56 59 57 54 49 39 31 25 48 53 55 52 49 44 46 39 36 31 25 13 6 25 12 29 46 34 18 40 34 97 110 81 73 71 67 60 54 50 57 59 61 50 45
60 62 60 60 58 57 59 60 56 53 50 48 48 44 37 36 36 33 29 32 34 35 31 34 39 42 40 34 28 23 18 18 17 21 24 27 32 36 35 36 36 43 42 42 42 46 49 48 37 33 49 55 56 54 50 47 46 37 32 26 10 7 15 7 30 28 43 55 42 18 19 33 63 67 54 45 54 56 52 57 58 60 61 72 65
64 59 54 54 58 60 52 50 52 55 57 54 50 44 38 33 32 27 29 33 36 37 33 37 40 38 40 38 36 32 22 17 14 12 11 18 30 35 39 41 40 42 49 33 34 44 46 46 39 40 41 46 51 49 40 38 38 36 31 25 25 16 22 28 12 26 26 36 59 50 51 49 51 57 64 84 117 126 119 93 80 78 81 83 72
62 63 63 56 53 58 61 58 50 44 43 48 52 51 45 39 35 29 26 25 28 31 32 34 35 35 37 40 35 30 23 15 8 6 2 4 15 24 30 35 42 51 58 50 38 36 33 39 43 40 36 26 44 41 37 27 36 39 32 29 25 24 16 19 28 28 46 41 49 62 78 85 78 65 49 65 205 80 64 100 129 127 126 106 98
65 62 64 68 65 57 53 54 56 49 42 39 41 46 48 43 38 33 27 23 24 25 28 29 33 32 30 31 37 31 30 22 11 1 359 348 355 16 24 28 28 28 36 34 35 39 42 46 62 61 60 38 39 47 41 26 32 36 41 34 37 33 30 24 22 39 27 53 58 64 70 75 95 113 93 71 65 40 17 10 138 119 174 154 124
72 71 66 61 62 65 68 68 64 62 53 45 39 37 46 53 47 37 30 23 18 22 25 25 25 34 29 23 29 36 29 27 16 5 358 355 345 5 21 30 36 22 26 24 29 22 16 13 35 10 352 357 32 46 39 32 30 33 41 42 43 47 51 44 38 30 31 32 60 62 87 101 96 95 90 73 71 80 101 93 81 62 31 51 74
69 73 74 73 70 66 64 59 65 78 77 68 61 49 43 49 58 61 49 34 31 25 26 29 17 40 44 24 23 34 36 23 10 342 338 345 3 9 18 15 16 39 14 337 342 21 28 39 28 24 21 16 25 37 41 36 31 28 31 31 42 44 41 45 56 37 29 25 30 17 37 58 74 83 109 126 126 126 130 116 298 186 214 191 145
65 57 53 55 56 55 52 57 58 61 89 102 91 76 40 35 52 84 79 81 70 53 51 46 22 16 54 57 40 39 33 14 332 343 354 356 358 10 15 24 23 16 350 335 339 49 41 33 35 38 31 37 33 39 33 33 36 34 35 18 34 45 41 48 49 49 33 48 66 29 14 100 197 181 117 80 55 37 3 311 136 174 174 151 103
74 75 64 54 37 50 53 51 47 53 48 65 115 116 107 73 36 45 89 113 96 86 77 66 49 36 26 67 101 97 78 23 352 349 355 1 5 2 357 357 5 359 6 16 21 36 35 43 39 37 46 46 47 51 51 50 51 51 46 34 43 38 32 42 50 69 44 341 354 348 294 265 143 71 77 122 158 159 188 253 126 198 214 93 146
71 68 65 65 47 43 58 53 54 48 50 46 34 40 99 121 108 67 40 56 88 101 100 88 79 71 55 38 26 56 35 15 358 353 351 352 351 353 349 340 334 334 333 336 52 47 40 44 40 39 39 45 48 42 36 55 155 128 112 63 50 68 72 74 15 167 154 177 181 189 198 113 85 100 153 179 184 117 72 33 19 11 358 115 90
46 47 60 68 74 61 51 53 48 50 48 42 46 44 33 30 81 133 118 47 72 106 98 95 96 92 87 79 66 57 0 342 349 354 351 350 343 333 327 307 289 272 290 293 98 96 113 95 80 84 74 67 27 23 50 353 338 355 66 83 63 359 33 48 305 6 24 5 345 111 106 104 88 60 49 40 39 82 118 129 40 55 45 84 74
54 35 22 50 56 48 54 49 47 51 47 48 42 39 35 41 37 25 83 141 148 116 87 98 107 103 87 75 62 41 15 2 350 347 345 340 335 324 325 312 304 282 235 267 47 57 49 11 22 28 41 5 124 123 300 340 358 19 9 358 5 33 40 251 74 64 107 25 18 46 60 84 147 159 136 48 45 21 11 123 145 174 164 126 127
93 77 32 12 53 51 45 43 46 43 45 44 45 36 40 35 40 46 34 19 16 33 88 108 68 55 87 91 79 56 25 356 349 339 335 333 321 309 291 271 285 335 11 28 21 16 18 15 27 26 14 13 19 14 2 353 11 347 342 349 296 153 214 92 73 169 172 164 162 182 159 141 155 145 155 169 176 150 141 126 93 115 124 145 169
60 64 76 65 58 56 47 49 39 38 35 45 40 43 37 28 34 46 37 27 18 37 40 37 112 112 101 111 115 85 47 1 341 337 328 330 325 319 354 41 39 30 32 27 27 25 22 18 17 17 17 15 12 1 1 1 351 340 350 14 16 50 104 108 153 106 101 110 79 76 186 210 286 52 33 34 71 128 116 71 66 24 21 44 48
45 49 53 75 69 56 71 60 49 35 43 44 39 40 38 37 34 41 44 30 28 20 40 33 26 102 193 116 135 137 102 21 335 325 321 317 344 7 36 23 39 44 49 40 29 30 30 32 23 25 28 22 10 8 12 11 358 356 356 354 43 40 23 9 5 140 168 142 136 162 122 87 136 174 166 153 120 89 81 65 51 39 39 6 319
55 53 44 16 61 71 59 54 41 46 47 54 52 36 34 44 32 37 39 50 32 26 32 43 38 27 19 8 27 25 172 194 233 277 316 13 48 40 38 33 18 21 25 42 31 23 33 24 20 11 14 20 19 14 18 20 29 20 11 14 18 33 329 27 1 316 75 96 110 131 116 127 153 101 138 146 142 132 124 133 141 133 135 287 336
84 54 349 349 41 38 52 53 56 34 35 51 54 50 41 35 39 29 36 35 31 28 33 41 43 30 21 9 11 345 347 33 28 38 27 23 21 32 32 28 31 26 18 12 26 33 25 22 22 20 13 15 16 22 22 18 15 22 41 87 100 131 202 163 155 187 171 161 168 174 169 169 129 100 88 90 83 106 120 123 117 94 79 69 50
73 82 44 267 120 64 61 56 40 54 39 21 40 50 39 40 37 39 37 31 29 31 31 42 50 40 25 19 357 342 339 23 28 30 25 22 21 12 17 25 20 18 19 22 4 6 25 31 19 18 16 18 14 15 16 17 13 355 335 321 48 83 44 92 176 176 121 113 147 125 90 81 109 145 142 110 114 114 114 100 79 72 80 86 78
112 103 88 52 3 58 68 65 54 34 45 34 21 35 48 34 45 47 30 26 23 20 31 29 39 50 38 0 307 317 331 23 17 23 18 18 13 14 11 15 16 15 11 13 11 8 353 10 29 26 20 24 17 19 6 8 358 355 1 11 30 32 16 16 3 34 29 27 68 112 150 77 185 167 87 78 77 102 107 116 131 122 130 123 114
66 60 57 71 81 59 58 44 62 55 38 37 34 24 19 33 29 30 36 20 25 22 20 19 24 75 125 259 287 300 305 25 12 18 14 8 10 6 5 7 11 8 8 8 7 10 360 359 6 38 19 0 7 6 12 11 12 16 3 36 76 133 155 116 37 22 343 100 10 1 4 27 26 61 67 126 186 165 155 134 111 117 99 83 73
50 81 88 76 48 42 40 79 48 43 45 31 42 21 11 14 20 14 35 33 19 14 23 15 17 17 108 201 281 289 331 23 16 14 18 1 9 357 355 11 20 358 355 6 10 7 355 350 356 34 30 24 359 357 350 6 353 353 5 16 13 11 29 117 156 197 187 90 34 356 341 354 18 116 172 223 226 109 75 88 145 116 115 167 131
134 108 89 70 89 70 34 36 61 50 29 142 250 34 13 16 13 9 6 20 22 0 15 9 11 2 1 194 231 298 13 11 14 8 10 5 10 359 360 358 14 7 347 5 24 4 357 8 357 23 358 350 30 6 353 350 336 340 354 6 348 2 343 17 14 9 358 346 127 170 238 314 322 118 129 39 91 101 153 164 4 139 250 111 67
34 359 57 73 26 49 100 73 46 68 28 29 29 24 23 12 20 16 359 359 14 360 7 355 0 358 349 348 349 353 348 5 354 5 6 1 354 9 6 3 4 354 2 11 31 3 356 356 355 40 352 354 359 344 319 41 326 315 345 4 337 302 308 29 2 359 340 347 320 277 186 193 211 183 148 152 81 241 181 173 206 67 332 16 89
99 105 337 6 107 354 7 54 29 9 23 14 19 12 6 4 8 7 4 2 358 348 341 344 347 343 340 345 349 342 335 337 344 354 358 352 1 1 359 3 2 347 12 14 13 17 15 340 1 3 358 356 1 337 336 319 314 328 306 277 289 17 17 23 330 315 336 336 335 336 345 9 293 9 8 346 292 65 51 51 92 223 28 134 144
18 7 79 353 21 73 78 32 58 337 347 23 10 350 4 12 350 356 349 352 299 329 332 343 336 331 335 341 351 335 330 327 331 337 345 352 348 330 345 8 1 332 346 22 7 356 136 348 1 357 349 341 344 326 306 327 324 15 303 324 30 27 20 358 350 321 312 326 330 334 344 325 337 140 168 245 319 115 143 266 98 91 276 326 120
153 130 83 297 112 7 25 11 117 215 329 357 7 334 18 343 345 352 341 339 333 339 329 332 338 348 349 341 338 345 345 336 341 343 350 336 333 341 340 342 316 349 337 344 152 7 345 10 37 300 310 289 311 333 330 320 341 351 359 59 44 33 13 357 330 339 1 346 329 305 291 292 339 350 11 14 335 350 261 200 190 204 189 218 241
350 2 19 39 328 32 21 349 356 341 21 323 319 314 6 348 344 342 345 339 332 331 342 344 354 348 347 356 342 342 338 344 346 342 346 342 333 333 333 334 28 322 308 321 343 90 303 266 323 289 324 314 62 293 287 331 330 336 44 57 57 37 23 8 341 355 335 309 284 286 286 289 287 291 295 307 320 304 304 329 320 344 177 246 262
52 177 177 214 311 26 326 346 346 345 342 327 330 330 338 335 342 343 343 336 331 334 341 344 337 345 355 352 336 341 349 348 348 353 352 348 343 338 324 330 314 317 323 327 335 72 226 166 165 257 240 291 340 270 260 163 275 54 70 73 78 52 29 340 319 352 342 325 324 309 296 299 324 295 293 258 230 254 296 290 274 283 273 281 270
155 255 264 23 331 316 314 334 344 329 322 344 336 327 327 325 333 334 334 336 328 330 328 334 337 336 342 351 339 333 333 340 345 344 346 340 334 333 323 318 320 305 295 302 298 303 274 225 239 187 216 217 247 250 262 230 118 96 106 112 109 75 57 360 347 5 342 324 304 295 285 263 262 279 268 261 233 216 234 298 299 281 282 259 237